[[{"header":{"parameterUnit":"m.s-1","parameterCategory":1,"la1":30.2991,"la2":30.254,"lo1":-89.0895,"lo2":-89.0444,"dy":0.0017,"dx":0.0017,"nx":28,"ny":28,"refTime":"2025-09-16T21:00:00:Z","depth":0,"parameterNumber":2,"parameterNumberName":"U-component_of_WINDS"},"data":[0,0,0,0,0,0,0,0,0,0,0,0,0,0,0,0,0,0,0,0,0,0,0,0,0,0,0,0,0,0,0,0,0,0,0,0,0,0,0,0,0,0,0,0,0,0,0,0,0,0,0,0,0,0,0,0,0,0,1.2983,1.2984,0,1.2992,1.2992,1.2992,1.3019,1.302,1.302,1.3021,1.3027,1.3027,1.3026,0,0,0,0,0,0,0,0,0,0,0,0,0,1.2989,1.2989,1.2983,1.2984,1.2984,1.2992,1.2992,1.2992,1.3019,1.302,1.3021,1.3021,1.3027,1.3027,1.3026,0,0,0,0,0,0,0,0,0,0,0,0,0,1.2991,1.2989,1.2983,1.2998,1.3,1.2992,1.2992,1.2992,1.3019,1.302,1.3021,1.3022,1.3027,1.3027,1.3026,1.3004,0,0,1.3024,1.3024,0,0,0,0,0,0,0,0,1.2991,1.2991,1.2996,1.2997,1.2999,1.3005,1.2996,1.2996,1.3019,1.3011,1.3021,1.3022,1.3019,1.3019,1.3019,1.3004,1.3004,1.3024,1.3024,1.3024,1.3023,0,0,0,0,0,0,0,1.2991,1.2991,1.2987,1.2996,1.2998,1.3004,1.3005,1.2996,1.301,1.3012,1.3014,1.3015,1.302,1.3019,1.3019,1.3004,1.3024,1.3024,1.3023,1.3023,1.2972,1.2971,0,0,0,0,0,0,1.2989,1.299,1.2986,1.2987,1.2997,1.3003,1.3004,1.3002,1.301,1.3012,1.3014,1.3016,1.302,1.302,1.3019,1.2993,1.3024,1.3023,1.3023,1.2973,1.2972,1.2971,0,0,0,0,0,0,1.2989,1.2988,1.2986,1.2989,1.2989,1.3002,1.2999,1.3002,1.3001,1.3012,1.3014,1.3011,1.302,1.302,1.3008,1.2994,1.3023,1.3022,1.2974,1.2972,1.2971,1.2941,0,0,0,0,0,0,1.2989,1.2988,1.298,1.2989,1.2989,1.2975,1.2998,1.3001,1.3,1.3003,1.3009,1.3011,1.3021,1.3008,1.3007,1.2993,1.3022,1.2975,1.2973,1.2972,1.2943,1.2939,1.2935,0,0,0,0,0,1.2989,1.2971,1.298,1.2979,1.298,1.2974,1.2974,1.2987,1.2999,1.2991,1.2998,1.3011,1.2996,1.3007,1.3005,1.2992,1.2976,1.2974,1.2972,1.2945,1.294,1.2935,0,0,0,0,0,0,1.2959,1.2972,1.2982,1.2966,1.2969,1.2979,1.2969,1.298,1.2979,1.2981,1.2997,1.2998,1.2983,1.2986,1.2998,1.297,1.2988,1.2986,1.2968,1.2963,1.2959,1.2958,1.3021,0,0,0,0,0,1.2951,1.2946,1.2958,1.2943,1.2943,1.2956,1.2954,1.2963,1.2966,1.2967,1.2973,1.2975,1.2971,1.2967,1.2964,1.2944,1.2946,1.2934,1.293,1.2926,1.2924,1.2913,1.2908,1.2963,1.2963,1.2963,0,0,1.2934,1.294,1.2936,1.2937,1.294,1.2934,1.2956,1.2949,1.2944,1.2966,1.2955,1.2959,1.2962,1.2946,1.2939,1.2948,1.2909,1.2924,1.2921,1.292,1.291,1.2905,1.29,1.2962,1.2962,1.2962,0,0,1.2899,1.2904,1.2892,1.2894,1.2899,1.2908,1.2905,1.2913,1.2917,1.2906,1.2922,1.2916,1.2909,1.291,1.2909,1.2876,1.2887,1.2874,1.2851,1.2841,1.2836,1.2833,1.282,1.2815,1.2871,1.2871,1.2871,0,1.2876,1.2868,1.2884,1.2875,1.2875,1.2895,1.2883,1.2884,1.2887,1.2886,1.2897,1.2888,1.2891,1.2875,1.2867,1.2867,1.2863,1.2873,1.2836,1.2832,1.2829,1.2817,1.2812,1.287,1.287,1.287,1.287,0,1.284,1.2835,1.2824,1.2827,1.2826,1.2815,1.2828,1.2825,1.2835,1.2842,1.283,1.2835,1.2833,1.283,1.2839,1.2815,1.2821,1.2834,1.2852,1.2822,1.2811,1.2806,1.2867,1.2868,1.2868,1.2869,0,0,1.2786,1.2798,1.2794,1.2796,1.2803,1.2798,1.2789,1.2787,1.2784,1.2785,1.2777,1.277,1.2782,1.2782,1.2791,1.2782,1.2754,1.2796,1.2796,1.2787,1.2727,1.2717,1.2711,1.2763,1.2762,1.2761,1.2727,0,1.2752,1.2737,1.2751,1.2732,1.2727,1.2746,1.2738,1.2741,1.2747,1.2743,1.275,1.2745,1.2761,1.2761,1.2753,1.2759,1.2742,1.2762,1.2754,1.2753,1.2752,1.2706,1.2695,1.2662,1.2723,1.2722,1.2721,0,1.2711,1.2711,1.2692,1.2701,1.2699,1.2691,1.2691,1.2687,1.269,1.2696,1.2696,1.2708,1.2698,1.2717,1.2703,1.2716,1.2714,1.2717,1.2716,1.2715,1.2735,1.2702,1.2652,1.2646,1.2715,1.2715,1.2716,0,1.2672,1.2668,1.2656,1.2657,1.2667,1.266,1.2664,1.2669,1.2667,1.2667,1.2666,1.2664,1.2663,1.2661,1.2672,1.2685,1.2657,1.2676,1.266,1.266,1.2652,1.2652,1.26,1.2652,1.2652,1.2653,1.2653,0,1.2632,1.262,1.2639,1.2631,1.2618,1.2634,1.262,1.2625,1.2629,1.2623,1.264,1.2633,1.2649,1.2644,1.2652,1.2639,1.2639,1.2642,1.2644,1.264,1.264,1.2638,1.264,1.2651,1.2652,1.2652,1.2652,0,1.2586,1.2599,1.2587,1.2597,1.26,1.2589,1.2597,1.2591,1.2599,1.259,1.2589,1.2601,1.2596,1.2607,1.2604,1.261,1.2591,1.2597,1.259,1.2591,1.2574,1.2575,1.2517,1.251,1.2568,1.2568,1.2567,0,1.256,1.2551,1.256,1.2557,1.256,1.2556,1.2554,1.2569,1.2567,1.2571,1.2563,1.256,1.2557,1.2548,1.2556,1.2553,1.2559,1.2539,1.2559,1.2554,1.2558,1.2558,1.2556,1.2535,1.2534,1.2533,1.2533,0,1.2511,1.2517,1.2515,1.2515,1.2513,1.2513,1.2515,1.2511,1.2527,1.2524,1.2519,1.2518,1.2514,1.251,1.2509,1.2512,1.2525,1.2527,1.2523,1.2518,1.2513,1.2515,1.2578,1.2528,1.2528,1.2529,1.2529,1.2529,1.2473,1.2466,1.2471,1.2468,1.2471,1.2472,1.2466,1.2474,1.247,1.2469,1.2478,1.2472,1.2475,1.2476,1.2477,1.2472,1.248,1.2475,1.2473,1.2471,1.2468,1.2515,1.2472,1.2472,1.2472,1.2472,1.2472,0,1.2424,1.2429,1.2426,1.2428,1.2425,1.2439,1.2441,1.2438,1.2432,1.2435,1.2432,1.2427,1.2423,1.2431,1.2428,1.2422,1.2428,1.2421,1.2421,1.2421,1.2461,1.2464,1.2416,1.2416,1.2416,1.2416,1.2416,1.2416,1.2398,1.2387,1.2394,1.2384,1.2389,1.2383,1.2383,1.2384,1.2386,1.2379,1.2376,1.2382,1.2387,1.2385,1.2382,1.2384,1.2382,1.2372,1.2377,1.2413,1.2418,1.2424,1.2427,1.2372,1.2372,1.2338,1.2337,1.2337]},{"header":{"parameterUnit":"m.s-1","parameterCategory":1,"la1":30.2991,"la2":30.254,"lo1":-89.0895,"lo2":-89.0444,"dy":0.0017,"dx":0.0017,"nx":28,"ny":28,"refTime":"2025-09-16T21:00:00:Z","depth":0,"parameterNumber":3,"parameterNumberName":"V-component_of_WINDS"},"data":[0,0,0,0,0,0,0,0,0,0,0,0,0,0,0,0,0,0,0,0,0,0,0,0,0,0,0,0,0,0,0,0,0,0,0,0,0,0,0,0,0,0,0,0,0,0,0,0,0,0,0,0,0,0,0,0,0,0,-1.3431,-1.3431,0,-1.3455,-1.3455,-1.3456,-1.3445,-1.3444,-1.3444,-1.3443,-1.3467,-1.3468,-1.3469,0,0,0,0,0,0,0,0,0,0,0,0,0,-1.3375,-1.3376,-1.3431,-1.3431,-1.3431,-1.3455,-1.3455,-1.3456,-1.3445,-1.3444,-1.3444,-1.3443,-1.3466,-1.3468,-1.3469,0,0,0,0,0,0,0,0,0,0,0,0,0,-1.3399,-1.3376,-1.3431,-1.3429,-1.3429,-1.3455,-1.3456,-1.3456,-1.3445,-1.3444,-1.3443,-1.3443,-1.3466,-1.3468,-1.3469,-1.3498,0,0,-1.3475,-1.3475,0,0,0,0,0,0,0,0,-1.3398,-1.3401,-1.3429,-1.3429,-1.3429,-1.3446,-1.3444,-1.347,-1.3445,-1.3439,-1.3443,-1.3442,-1.346,-1.3463,-1.3469,-1.3499,-1.35,-1.3475,-1.3476,-1.3477,-1.3477,0,0,0,0,0,0,0,-1.3396,-1.34,-1.344,-1.3429,-1.343,-1.3427,-1.3429,-1.3449,-1.3454,-1.344,-1.3439,-1.3442,-1.346,-1.3467,-1.347,-1.35,-1.3475,-1.3476,-1.3477,-1.3478,-1.3557,-1.3558,0,0,0,0,0,0,-1.3394,-1.3399,-1.344,-1.3441,-1.3411,-1.3429,-1.3431,-1.3442,-1.3454,-1.3455,-1.3443,-1.3441,-1.3465,-1.3467,-1.347,-1.3506,-1.3477,-1.3478,-1.3479,-1.3556,-1.3557,-1.3558,0,0,0,0,0,0,-1.3393,-1.3398,-1.3439,-1.342,-1.3425,-1.343,-1.3442,-1.3443,-1.345,-1.3457,-1.3457,-1.3449,-1.3464,-1.3468,-1.3492,-1.3506,-1.3479,-1.3481,-1.3554,-1.3556,-1.3557,-1.3576,0,0,0,0,0,0,-1.3392,-1.3398,-1.3409,-1.342,-1.3426,-1.346,-1.3443,-1.3444,-1.3453,-1.3451,-1.3463,-1.3464,-1.3464,-1.3489,-1.3493,-1.3508,-1.3482,-1.3553,-1.3555,-1.3557,-1.3574,-1.3578,-1.3582,0,0,0,0,0,-1.339,-1.3412,-1.3409,-1.3414,-1.344,-1.3461,-1.3464,-1.3464,-1.3454,-1.3465,-1.347,-1.3463,-1.3504,-1.3492,-1.3496,-1.3512,-1.3552,-1.3555,-1.3557,-1.3573,-1.3577,-1.3581,0,0,0,0,0,0,-1.3402,-1.3414,-1.3411,-1.3438,-1.3448,-1.3459,-1.3473,-1.3469,-1.3482,-1.348,-1.3479,-1.3482,-1.3507,-1.3512,-1.3498,-1.3541,-1.3527,-1.353,-1.3537,-1.3542,-1.3545,-1.3544,-1.3484,0,0,0,0,0,-1.3408,-1.3424,-1.3434,-1.3457,-1.3462,-1.3467,-1.3476,-1.3475,-1.3486,-1.349,-1.3496,-1.3507,-1.3522,-1.3532,-1.3546,-1.3575,-1.3578,-1.3588,-1.3592,-1.3595,-1.3598,-1.3614,-1.3619,-1.3566,-1.3565,-1.3565,0,0,-1.342,-1.3429,-1.3439,-1.346,-1.3468,-1.3485,-1.3471,-1.3489,-1.3501,-1.3493,-1.3516,-1.3521,-1.3533,-1.3559,-1.3571,-1.3564,-1.3613,-1.3598,-1.36,-1.3601,-1.3617,-1.3622,-1.3627,-1.3567,-1.3567,-1.3567,0,0,-1.3452,-1.346,-1.348,-1.3489,-1.3502,-1.3505,-1.351,-1.3521,-1.3525,-1.3548,-1.3542,-1.3557,-1.3583,-1.3592,-1.36,-1.3636,-1.3631,-1.3641,-1.366,-1.3676,-1.368,-1.3684,-1.3697,-1.3702,-1.3644,-1.3644,-1.3644,0,-1.3465,-1.3491,-1.3491,-1.3511,-1.352,-1.3514,-1.3535,-1.3543,-1.356,-1.3567,-1.3559,-1.3592,-1.3599,-1.3628,-1.3638,-1.3644,-1.365,-1.3639,-1.3679,-1.3683,-1.3687,-1.37,-1.3705,-1.3645,-1.3645,-1.3645,-1.3644,0,-1.3508,-1.3526,-1.3541,-1.3558,-1.3569,-1.3589,-1.3593,-1.3604,-1.3603,-1.3606,-1.3631,-1.3639,-1.3656,-1.3663,-1.3661,-1.3692,-1.3687,-1.3679,-1.3665,-1.3693,-1.3705,-1.371,-1.3646,-1.3646,-1.3646,-1.3645,0,0,-1.3547,-1.3565,-1.3571,-1.3579,-1.3593,-1.3607,-1.3627,-1.3644,-1.3654,-1.3666,-1.3683,-1.3706,-1.3699,-1.3708,-1.3707,-1.3721,-1.3751,-1.3712,-1.3712,-1.3719,-1.3786,-1.3792,-1.3798,-1.3747,-1.3748,-1.3749,-1.3785,0,-1.358,-1.3616,-1.3617,-1.365,-1.3667,-1.3662,-1.3679,-1.369,-1.3694,-1.3709,-1.3714,-1.373,-1.3719,-1.3725,-1.3739,-1.3744,-1.3764,-1.3741,-1.3763,-1.3764,-1.3761,-1.3804,-1.3811,-1.3845,-1.379,-1.3791,-1.3791,0,-1.3623,-1.3637,-1.3672,-1.3685,-1.3692,-1.3708,-1.3724,-1.3738,-1.3751,-1.3753,-1.3764,-1.3761,-1.3782,-1.3767,-1.3795,-1.378,-1.3789,-1.3793,-1.3794,-1.3797,-1.378,-1.3808,-1.3856,-1.3861,-1.3799,-1.3798,-1.3798,0,-1.3649,-1.3677,-1.3702,-1.3709,-1.3724,-1.3736,-1.3743,-1.3754,-1.3765,-1.3779,-1.3785,-1.3801,-1.381,-1.3823,-1.3825,-1.3813,-1.3854,-1.3839,-1.3857,-1.3857,-1.3866,-1.3865,-1.3916,-1.3871,-1.387,-1.387,-1.387,0,-1.3686,-1.3708,-1.3714,-1.3729,-1.3753,-1.3755,-1.3779,-1.3785,-1.3795,-1.3811,-1.3807,-1.3823,-1.3825,-1.384,-1.3842,-1.3866,-1.387,-1.3872,-1.3873,-1.3873,-1.3873,-1.3879,-1.3877,-1.3872,-1.3871,-1.3871,-1.3871,0,-1.3719,-1.3724,-1.3751,-1.3764,-1.3768,-1.3785,-1.3796,-1.3811,-1.3815,-1.3836,-1.3841,-1.3848,-1.3866,-1.387,-1.3891,-1.3892,-1.3921,-1.3919,-1.3918,-1.3918,-1.3936,-1.3934,-1.3992,-1.4,-1.395,-1.395,-1.395,0,-1.3743,-1.376,-1.3775,-1.3786,-1.3794,-1.3811,-1.3822,-1.3825,-1.3836,-1.3852,-1.3865,-1.3883,-1.3898,-1.3928,-1.3935,-1.3952,-1.395,-1.3969,-1.3952,-1.3953,-1.3951,-1.395,-1.3952,-1.3973,-1.3973,-1.3974,-1.3974,0,-1.3784,-1.3786,-1.3803,-1.382,-1.3834,-1.3848,-1.3861,-1.387,-1.3874,-1.3887,-1.3907,-1.3918,-1.3941,-1.396,-1.3977,-1.3983,-1.398,-1.3979,-1.3984,-1.3985,-1.3984,-1.3986,-1.3927,-1.3978,-1.3978,-1.3977,-1.3977,-1.3977,-1.3814,-1.3829,-1.3843,-1.3861,-1.3872,-1.3884,-1.3899,-1.3906,-1.3922,-1.3941,-1.3942,-1.3963,-1.3976,-1.3998,-1.4006,-1.4023,-1.4017,-1.4024,-1.4026,-1.4028,-1.403,-1.3981,-1.4026,-1.4026,-1.4026,-1.4026,-1.4026,0,-1.3856,-1.3865,-1.3882,-1.3901,-1.3916,-1.3912,-1.3926,-1.3939,-1.3958,-1.397,-1.3985,-1.4008,-1.4026,-1.4035,-1.4053,-1.4065,-1.4064,-1.407,-1.4069,-1.4071,-1.4034,-1.4029,-1.407,-1.407,-1.407,-1.407,-1.407,-1.407,-1.388,-1.3905,-1.3909,-1.394,-1.3948,-1.397,-1.3979,-1.399,-1.4001,-1.4027,-1.4042,-1.4048,-1.4059,-1.4078,-1.4094,-1.4096,-1.4103,-1.411,-1.4112,-1.4078,-1.4073,-1.4069,-1.4063,-1.4112,-1.4112,-1.4147,-1.4147,-1.4147]}]]